Regional Weather Roundup
Issued by NWS

Home | Current Version | Previous Version | Text Only | Print | Product List | Glossary On
Versions: 1 2 3 4 5 6 7 8 9 10 11 12 13 14 15 16 17 18 19 20 21 22 23 24 25 26 27 28 29 30 31 32 33 34 35 36 37 38 39 40 41 42 43 44 45 46 47 48 49 50
000
ASHW40 PHFO 212243
RWRHI

WEATHER ROUNDUP FOR HAWAII
NATIONAL WEATHER SERVICE HONOLULU HI
1200 PM HST SAT JAN 21 2017

THIS IS AN AUTOMATED REPORT THAT HAS NOT BEEN QUALITY CONTROLLED.

NOTE..."FAIR" INDICATES FEW OR NO CLOUDS BELOW 12,000 FEET WITH NO
SIGNIFICANT WEATHER AND/OR OBSTRUCTIONS TO VISIBILITY.

* - THESE SITES REPORT LIMITED FIELDS

HIZ001>004-212300-
KAUAI-NIIHAU-

CITY           SKY/WX    TMP DP  RH WIND       PRES   REMARKS
LIHUE APT      CLOUDY    75  57  53 NE26G35   30.18F
PORT ALLEN*      N/A     73 N/A N/A E20G35      N/A
POIPU*           N/A     77 N/A N/A NE13G28     N/A
PRINCEVILLE*     N/A     70 N/A N/A NE14G28     N/A
KOKOLE POINT*  NOT AVBL
MOLOAA DAIRY*    N/A     72  64  78 NE7G18      N/A
WAIMEA HTS*      N/A     77  64  65 W8          N/A
PUU OPAE*      NOT AVBL
PUU LUA*       NOT AVBL
MAKAHA RIDGE*    N/A    N/A N/A N/A NE10G25     N/A
$$

HIZ005>011-212300-
OAHU-

CITY           SKY/WX    TMP DP  RH WIND       PRES   REMARKS
HONOLULU       LGT RAIN  73  65  75 NE10G21   30.12F
KALAELOA       LGT RAIN  73  66  78 NE10G21   30.13F
KANEOHE MCB    NOT AVBL
WHEELER FIELD  LGT RAIN  68  65  92 N15G24    30.14F FOG
BELLOWS*         N/A    N/A N/A N/A NE29G39     N/A
KAHUKU*          N/A    N/A N/A N/A NE12G26     N/A
WHEELER*         N/A    N/A N/A N/A N9G18       N/A
WAIANAE HARBOR   N/A    N/A N/A N/A NE9G26      N/A
DILLINGHAM*      N/A     81  75  83 MISG        N/A
KAHUKU TRN*      N/A     66  61  82 W13G31      N/A
KAWAILOA*        N/A     64  63  94 NE23G41     N/A
KII*             N/A     73  66  78 NE28G36     N/A
MAKUA RANGE*     N/A     75  68  78 W18G43      N/A
OAHU FOREST NW   N/A     64  61  88 E32G64      N/A
SCHOFIELD BRK*   N/A     70  66  88 MISG        N/A
SCHOFIELD S*   NOT AVBL
WAIANAE VLY*     N/A     66  61  82 W14G37      N/A
KUAOKALA*        N/A     70   3   7 VRB22G56    N/A
HONOULIUULI*   NOT AVBL
MOKUOLOE IS*   NOT AVBL
PALEHUA*         N/A     63  63 100 NE12G31     N/A
WAIAWA PHB*    NOT AVBL
$$

HIZ012>013-212300-
MOLOKAI-

CITY           SKY/WX    TMP DP  RH WIND       PRES   REMARKS
MOLOKAI AIRPT  MOSUNNY   74  64  71 NE21G31   30.13F
KALAUPAPA      NOT AVBL
MAKAPULAPAI*     N/A     72  68  88 E21G39      N/A
MOLOKAI 1*       N/A    N/A N/A N/A VRB10G29    N/A
PUU ALII*        N/A     56  56 100 N5G21       N/A
$$

HIZ016-212300-
KAHOOLAWE-

CITY           SKY/WX    TMP DP  RH WIND       PRES   REMARKS
KAHOOLAWE*     NOT AVBL
HAKIOAWA*        N/A     74  67  77 MISG      30.43F
HONOKANAIA*      N/A     80  64  56 N17G33    30.01F
KANELOA*         N/A     79  64  61 SE14      30.14F
KEALIALALO*    NOT AVBL
LUA MAKIKA*    NOT AVBL
$$

HIZ014>015-212300-
LANAI-

CITY           SKY/WX    TMP DP  RH WIND       PRES   REMARKS
LANAI CITY     PTSUNNY   72  63  73 NE46G58   30.02F HAZE
LANAI 1*         N/A     70  63  78 NE35G47     N/A
$$

HIZ017>028-212300-
MAUI-

CITY           SKY/WX    TMP DP  RH WIND       PRES   REMARKS
KAHULUI        MOSUNNY   79  67  66 NE24G35   30.12F
KAPALUA-W MAUI PTSUNNY   75  64  69 N25G38    30.11
HANA AIRPORT   RAIN      72  66  83 N6        30.17F VSB 1/2
HANA*            N/A     75 N/A N/A N9G20       N/A
HALEAKALA SUMM   N/A     41  37  87 NE23        N/A
MAALAEA BAY*     N/A     77 N/A N/A NE29G44     N/A
HALEAKALA*     NOT AVBL
KAUPO GAP*       N/A     81  75  83 W7G21       N/A
KULA 1*          N/A     62  51  68 S3          N/A
$$

HIZ023>026-212300-
BIG ISLAND OF HAWAII COAST AND LOWER SLOPES-

CITY           SKY/WX    TMP DP  RH WIND       PRES   REMARKS
KAILUA KONA    MOSUNNY   82  63  51 SE15G46   30.00F
HILO           MOSUNNY   73  68  84 N10       30.13F
HONOKAA*         N/A     68 N/A N/A VRB1        N/A
KAWAIHAE MWT*  NOT AVBL
KAWAIHAE*        N/A     79 N/A N/A SW12      30.00F
SOUTH POINT*     N/A     75 N/A N/A N17G26      N/A
UPOLU AIRPORT* NOT AVBL
KAMUELA*       MOCLDY    64  61  88 NE33      30.11F
HAKALAU*         N/A     55  54  95 NE9G17      N/A
KALOKO-HONOKO*   N/A     82  59  44 S7        30.01F
PALI 2*          N/A     72  57  60 S22G39      N/A
KEALAKOMO*       N/A     79  64  61 NE26G41     N/A
KAUPULEHU*       N/A     81  59  47 NE23G37     N/A
KAPAPALA*      NOT AVBL
LOWER KAHUKU*    N/A    N/A N/A N/A S2G9        N/A
PUHE CS*         N/A     82  63  51 W3G9        N/A
PUHO CS*         N/A     80  62  53 W3          N/A
PTA KEAMUKU*     N/A     66  55  68 CALM        N/A
WAIKOLOA*        N/A     79  61  53 NE28G46     N/A
$$

HIZ027>028-212300-
BIG ISLAND OF HAWAII INTERIOR AND SUMMMITS-

CITY           SKY/WX    TMP DP  RH WIND       PRES   REMARKS
BRADSHAW FIELD SUNNY     64  51  62 S16G22    30.32F
MK VISITOR CEN   N/A     57  23  26 SE13        N/A
MAUNA KEA*       N/A     37   9  30 W9G21       N/A
MAUNA LOA*       N/A     52  -2  11 MISG        N/A
MAUNA LOA 1*   NOT AVBL
PTA KIPUKA*      N/A    N/A N/A N/A NW10G22     N/A
PTA RANGE 17*    N/A     64  48  55 SE17G28     N/A
PTA WEST*        N/A    N/A N/A N/A SE9G18      N/A
NENE CABIN*      N/A     63  43  48 SE7G15      N/A
AHUMOA*          N/A     67  51  56 N6G15       N/A
PTA PORTABLE*  NOT AVBL
PUU MALI*        N/A     52 N/A N/A NE21G29     N/A
$$

HIC003-212300-
NORTHWEST ISLANDS-

CITY           SKY/WX    TMP DP  RH WIND       PRES   REMARKS
MIDWAY ISLAND  CLOUDY    70  59  68 SE20      30.35S
MIDWAY NOS*      N/A     70 N/A N/A MISG      30.32F
FRENCH FRIGATE NOT AVBL
$$

PHZ110>124-180-212300-
BUOY REPORTS

STATION/POSITION TIME  TEMP    WIND        PRES    WAVE   SWELL
                       AIR SEA DIR/SP/G            HT/PER HT/DIR
                 (UTC) (F)     (DEG/KT/KT) (MB)    (FT/S) (FT/D)
BUOY 51001       2220   70 75   50/ 25/ 33 1025.8
BUOY 51101       2150   70 75   50/ 27/ 33 1025.9S  14/ 8   5/330
BUOY 51100       NOT AVBL
BUOY 51002       2220   77 78   60/ 19/ 25 1015.9
BUOY 51003       2150   76 78   50/ 21/ 25 1018.2F   9/ 8   5/290
BUOY 51004       2150      77   50/ 19/ 23 1017.1F   9/15   7/330
BARBERS PT BUOY  NOT AVBL
WAIMEA BAY BUOY  2202      75                N/A    12/ 8   5/320
KAILUA BAY BUOY  2204      76                N/A    11/ 8   3/340
LANAI BUOY       2215      77                N/A     4/13   2/280
BARBERS PT 2     2209      77                N/A     5/13   3/300
PAUWELA MAUI     2209      76                N/A     9/13   5/330
HILO             2212      76                N/A     8/14   5/340
KANEOHE BAY BUOY 2206      76                N/A    12/ 8   3/340
HANALEI KAUAI    2222      76                N/A    14/10   7/320
KAHULUI HARBOR   2200   74 76   30/ 21/ 28 1020.3
HONOLULU HARBOR  2200   73 76  360/  6/ 13 1020.3
KILO NALU        NOT AVBL
HILO HARBOR      2200   72 74  330/ 11/ 12 1019.8
MOKUOLOE         2136   73 76   60/ 19/ 26 1021.5F
NAWILIWILI       2200   70      30/ 16/ 23 1021.6
WHOTS BUOY       NOT AVBL
BUOY 51028       NOT AVBL
$$

......................KEY........................................
  SKY/WX - SKY CONDITIONS/PRESENT WEATHER
  TMP    - TEMPERATURE IN FAHRENHEIT
  DWPT   - DEWPOINT IN FAHRENHEIT
  RH     - RELATIVE HUMIDITY IN PERCENT
  WIND   - DIRECTION AND SPEED /MPH FOR ISLANDS...KTS FOR BUOYS/
  PRES   - MEAN SEA LEVEL PRESSURE IN INCHES OF HG
  VSB    - VISIBILITY IN MILES
  HX     - HEAT INDEX
  WCI    - WIND CHILL INDEX
  VRB    - VARIABLE WIND DIRECTION
  N/A    - NOT AVAILABLE



USA.gov is the U.S. government's official web portal to all federal, state and local government web resources and services.